Home   Weather   Aarau   Past weeks

Flag for Switzerland Past Weather in Aarau, Aargau, Switzerland — Yesterday and Last 2 Weeks

Now
60 °F

Cool.


Feels Like: 60 °F
Forecast: 47 / 72 °F
Wind: 2 mph from Southwest

Location: Wynau

Current Time: Sep 29, 2016 at 8:53:54 PM

Latest Report: Sep 29, 2016 at 8:00 PM


Visibility: N/A

Pressure: 30.12 "Hg

Humidity: 85%

Dew Point: 55 °F

Location of AarauLocation

Past Weather in Aarau — Graph

°F

Aarau Temperature Yesterday

Maximum temperature yesterday: 71 °F (at 4:00 PM)
Minimum temperature yesterday: 48 °F (at 5:00 AM)
Average temperature yesterday: 57 °F

High & Low Weather Summary for the Past Weeks

 TemperatureHumidityPressure
High82 °F (Sep 14, 6:00 PM)100% (Sep 15, 6:00 AM)30.47 "Hg (Sep 15, 6:00 AM)
Low44 °F (Sep 22, 6:00 AM)47% (Sep 14, 6:00 PM)29.78 "Hg (Sep 14, 6:00 PM)
Average57 °F86%30.13 "Hg
* Reported Sep 14 6:00 PM — Sep 29 6:00 PM, Aarau, Weather by CustomWeather, © 2016

Note: Actual official high and low records may vary slightly from our data, if they occured in-between our weather recording intervals... More about our weather records

Advertising

Aarau Weather History for the Previous 24 Hours

Scroll right to see more
 ConditionsComfort  
Time TempWeatherWind HumidityBarometerVisibility
6:00 PM
Thu, Sep 29
73 °FMild.6 mph49%30.10 "HgN/A
5:00 PM74 °FMild.6 mph48%30.11 "HgN/A
4:00 PM74 °FMild.10 mph48%30.13 "HgN/A
3:00 PM72 °FMild.7 mph54%30.15 "HgN/A
2:00 PM70 °FMild.9 mph60%30.19 "HgN/A
1:00 PM67 °FMild.8 mph69%30.24 "HgN/A
12:00 PM64 °FMild.6 mph76%30.27 "HgN/A
11:00 AM59 °FCool.6 mph85%30.30 "HgN/A
10:00 AM56 °FCool.3 mph91%30.33 "HgN/A
9:00 AM50 °FCool.1 mph99%30.35 "HgN/A
8:00 AM48 °FCool.1 mph100%30.36 "HgN/A
7:00 AM48 °FCool.No wind100%30.36 "HgN/A
6:00 AM48 °FCool.1 mph100%30.37 "HgN/A
5:00 AM49 °FCool.2 mph100%30.38 "HgN/A
4:00 AM49 °FCool.2 mph100%30.39 "HgN/A
3:00 AM50 °FCool.1 mph100%30.40 "HgN/A
2:00 AM50 °FCool.No wind100%30.41 "HgN/A
1:00 AM52 °FCool.1 mph99%30.41 "HgN/A
12:00 AM53 °FCool.2 mph98%30.41 "HgN/A
11:00 PM
Wed, Sep 28
54 °FCool.No wind98%30.42 "HgN/A
10:00 PM55 °FCool.No wind96%30.41 "HgN/A
9:00 PM58 °FCool.1 mph91%30.40 "HgN/A
8:00 PM59 °FCool.No wind90%30.40 "HgN/A
Weather by CustomWeather, © 2016

See weather overviewHow to use our weather pages